Regional Weather Roundup
Issued by NWS Goodland, KS

Home | Current Version | Previous Version | Text Only | Print | Product List | Glossary On
Versions: 1 2 3 4 5 6 7 8 9 10 11 12 13 14 15 16 17 18 19 20 21 22 23 24 25 26 27 28 29 30 31 32 33 34 35 36 37 38 39 40 41 42 43 44 45 46 47 48 49 50
000
ASUS43 KGLD 300259
RWRGLD

GOODLAND FORECAST AREA HOURLY WEATHER ROUNDUP
NATIONAL WEATHER SERVICE GOODLAND KS
900 PM MDT WED MAR 29 2017

...OFFICIAL OBSERVATIONS...

CITY           SKY/WX    TMP DP  RH WIND       PRES   REMARKS
GOODLAND KS    CLOUDY    38  36  92 NW12      29.92F
HILL CITY KS   LGT RAIN  40  38  93 N17G28    29.87S
IMPERIAL NEB   CLEAR     38  35  89 N6        29.94F
MCCOOK NEB     CLOUDY    41  39  93 N13       29.90F
AKRON CO       CLEAR     36  33  89 E8        29.96S
BURLINGTON CO  PTCLDY    40  36  86 N7        29.94F
LIMON CO       CLEAR     32  31  96 NW5       29.99R
$$

...UNOFFICIAL OBSERVATIONS...

CITY           SKY/WX    TMP DP  RH WIND       PRES   REMARKS
NORTON KS      LGT RAIN  39  36  87 N10       29.87S
SHARON SPRINGS   N/A     41  38  89 NW15        N/A
TRENTON NEB      N/A     39  32  76 N6          N/A
KIT CARSON CO    N/A     39  35  87 MISG        N/A
YUMA CO        FAIR      37  36  93 N3        29.96S
$$



USA.gov is the U.S. government's official web portal to all federal, state and local government web resources and services.